FREGAT DEB, 45814

Orbit data source: Space-Track

FREGAT DEB, 45814 is space debris in LEO originally from a launch on Mon, 18 Jul 2011 UTC launched from the Tyuratam Missile And Space Complex (TTMTR). Debris objects in space refer to the collection of defunct objects orbiting the Earth. Examples of debris include non-operational satellites, rocket bodies, and fragments generated from explosions, collisions, or faulty payload assembly.

Loading next visibility...
Identifier
45814, 2011-037AY
Orbit
LEO
Country
Flag of CISCIS
Related business
Manufacturer
Lavochkin
Mission
Spacecraft
Bus & Motor
Unknown
Mass
Unknown
Launch date (UTC)
2011-07-18 (15 years ago)
Launch vehicle
Unknown
Launch site
Tyuratam Missile And Space Complex (TTMTR)
Object type
Payload
Rocket body
Debris
Shape & HBR
Unknown shape, 0.1 m
Radar Cross Section
Small (<0.1 m²)

Expand to show TLE details & history
Last TLE update: 13 hours ago

TLE from 13 hours ago
0 FREGAT DEB
1 45814U 11037AY  26034.44688930  .00001907  00000-0  10862-1 0  9996
2 45814  51.0788 188.9680 1044512  91.1266 280.9183 11.55982026236286
Epoch: 2026-02-03T10:43Z
TLE epoch observation values (Epoch: 2026-02-03T10:43:31.235Z)
Latitude
-0.00006°
Longitude
-105.53989°
Altitude
1,810.178 km
Speed
7.01 km/s
True Right ascension
12h 35m 52s
True Declination
0° 00' 00"
Sunlit
Object was in daylight at epoch
Visualization orbit readout
Latitude
Unknown
Longitude
Unknown
Altitude
Unknown
Speed
Unknown
Apparent Right ascension
Unknown
Apparent Declination
Unknown
Sunlit
N/A
Visualization observer readout
Local Sidereal Time
01:32:00
Azimuth
Unknown
Elevation
Unknown
Doppler factor
Unknown
Orbital elements
Apogee altitude
2,747.73 km
Perigee altitude
1,021.61 km
Semi-major axis
8,262.807 km
Eccentricity
0.10445
Inclination
51.0788°
RAAN
188.968°
Arg. of periapsis
91.1266°
True anomaly
268.95579°
Mean anomaly
280.9183°
Eccentric anomaly
274.95606°
Mean motion
2.88969 °/min
Orbital period
124.58 mins
BSTAR
0.010862
Loading maneuver chart data...
Computing Atmospheric mass density...
Loading historical data...
Loading historical data...
Loading historical data...
Loading historical data...
Loading historical data...
Loading historical data...
Loading historical data...

Documentation

Showing up to 5 results
|